Location: Elstree
(51.6403°N, 0.2969°W)
Time: 01:25:33
(UTC+00:00)

ISS - Visible Passes

Search period start: 15 May 2021 00:00
Search period end: 25 May 2021 00:00
Orbit: 417 x 422 km, 51.6° (Epoch: 14 May)

Date Brightness Start Highest point End Pass type
(mag) Time Alt. Az. Time Alt. Az. Time Alt. Az.
15 May -3.8 00:02:41 10° W 00:06:04 88° N 00:09:28 10° E visible
15 May -3.8 01:39:31 10° W 01:42:52 62° SSW 01:46:13 10° ESE visible
15 May -2.3 03:16:46 10° W 03:19:15 19° SW 03:21:42 10° S visible
15 May -3.3 21:38:49 10° SW 21:41:57 37° SSE 21:45:07 10° E visible
15 May -3.9 23:15:14 10° W 23:18:36 87° S 23:22:00 10° E visible
16 May -3.9 00:52:03 10° W 00:55:26 76° SSW 00:58:49 10° ESE visible
16 May -2.8 02:29:03 10° W 02:31:58 26° SSW 02:34:50 10° SSE visible
16 May -2.8 20:51:43 10° SSW 20:54:37 27° SSE 20:57:33 10° E visible
16 May -3.9 22:27:48 10° WSW 22:31:09 78° SSE 22:34:32 10° E visible
17 May -3.9 00:04:36 10° W 00:07:59 86° S 00:11:22 10° E visible
17 May -3.2 01:41:29 10° W 01:45:01 34° S 01:47:45 10° SE visible
17 May -3.8 21:40:23 10° WSW 21:43:43 64° SSE 21:47:04 10° E visible
17 May -3.8 23:17:08 10° W 23:20:31 88° N 23:22:52 18° E visible
18 May -2.5 00:53:58 10° W 00:55:46 27° W 00:55:46 27° W visible
18 May -3.6 20:53:02 10° SW 20:56:18 50° SSE 20:59:36 10° E visible
18 May -3.8 22:29:39 10° W 22:33:03 88° N 22:36:25 10° E visible
19 May -3.6 00:06:29 10° W 00:09:22 54° WSW 00:09:22 54° WSW visible
19 May -3.8 21:42:11 10° W 21:45:34 87° SSE 21:48:57 10° E visible
19 May -3.9 23:19:01 10° W 23:22:23 76° SSW 23:23:11 49° ESE visible
20 May -1.1 00:56:01 10° W 00:56:07 11° W 00:56:07 11° W visible
20 May -3.8 20:54:43 10° WSW 20:58:06 78° SSE 21:01:29 10° E visible
20 May -3.9 22:31:32 10° W 22:34:55 86° S 22:37:04 21° E visible
21 May -2.1 00:08:25 10° W 00:10:01 23° WSW 00:10:01 23° WSW visible
21 May -3.8 21:44:03 10° W 21:47:26 88° N 21:50:50 10° E visible
21 May -3.5 23:20:53 10° W 23:23:57 47° SW 23:23:57 47° SW visible
22 May -3.7 20:56:34 10° W 20:59:57 88° N 21:03:20 10° E visible
22 May -3.8 22:33:23 10° W 22:36:44 62° SSW 22:37:56 35° SE visible
23 May -1.2 00:10:39 10° W 00:10:52 11° W 00:10:52 11° W visible
23 May -3.8 21:45:54 10° W 21:49:16 76° SSW 21:51:56 15° ESE visible
23 May -2.2 23:22:54 10° W 23:24:52 23° WSW 23:24:52 23° WSW visible
24 May -3.8 20:58:24 10° W 21:01:47 86° S 21:05:10 10° E visible
24 May -3.1 22:35:17 10° W 22:38:25 36° SSW 22:38:54 34° S visible
